• In Belgium
  • List of Countries
  • For 7 days
  • Water Temperature
  • Satellite Maps
  • Weather Map
  • Weather Widgets
  • user-avatar
    Login

    Hourly Weather Beveren

    Today, 12 December, Tuesday

    Time Temperature Precipitation Wind Pressure Humidity
    00:00 +1°C° 0 mm 6 mps 743 mmHg 81%
    01:00 +1°C° 0.1 mm 5 mps 744 mmHg 81%
    02:00 +1°C° 0.1 mm 5 mps 746 mmHg 81%
    03:00 0°C° 0.1 mm 4 mps 747 mmHg 81%
    04:00 0°C° 0.2 mm 4 mps 748 mmHg 82%
    05:00 0°C° 0.2 mm 4 mps 749 mmHg 84%
    06:00 0°C° 0 mm 4 mps 751 mmHg 87%
    07:00 0°C° 0.2 mm 4 mps 752 mmHg 86%
    08:00 0°C° 0.2 mm 4 mps 753 mmHg 86%
    09:00 +1°C° 0.2 mm 4 mps 753 mmHg 86%
    10:00 +1°C° 0.3 mm 4 mps 754 mmHg 83%
    11:00 +3°C° 0.3 mm 4 mps 755 mmHg 81%
    12:00 +3°C° 0.3 mm 5 mps 756 mmHg 78%
    13:00 +2°C° 0.3 mm 5 mps 756 mmHg 80%
    14:00 +3°C° 0.3 mm 4 mps 757 mmHg 81%
    15:00 +3°C° 0.3 mm 4 mps 757 mmHg 83%
    16:00 +1°C° 0 mm 4 mps 758 mmHg 85%
    17:00 0°C° 0 mm 4 mps 758 mmHg 87%
    18:00 0°C° 0 mm 4 mps 758 mmHg 89%
    19:00 0°C° 0 mm 4 mps 759 mmHg 89%
    20:00 -1°C° 0 mm 4 mps 759 mmHg 89%
    21:00 -1°C° 0 mm 5 mps 759 mmHg 88%
    22:00 -1°C° 0 mm 5 mps 759 mmHg 88%
    23:00 -1°C° 0 mm 6 mps 759 mmHg 87%

    Tomorrow, 13 December, Wednesday

    Time Temperature Precipitation Wind Pressure Humidity
    00:00 -1°C° 0 mm 6 mps 759 mmHg 86%
    01:00 -1°C° 0 mm 7 mps 758 mmHg 86%
    02:00 0°C° 0 mm 7 mps 757 mmHg 86%
    03:00 0°C° 0 mm 8 mps 757 mmHg 86%
    04:00 0°C° 0.4 mm 8 mps 756 mmHg 85%
    05:00 +1°C° 0.4 mm 9 mps 755 mmHg 84%
    06:00 +1°C° 0.4 mm 10 mps 754 mmHg 83%
    07:00 +1°C° 0.6 mm 10 mps 753 mmHg 84%
    08:00 +2°C° 0.6 mm 10 mps 753 mmHg 84%
    09:00 +2°C° 0.6 mm 10 mps 752 mmHg 85%
    10:00 +3°C° 0.2 mm 9 mps 752 mmHg 86%
    11:00 +4°C° 0.2 mm 8 mps 751 mmHg 87%
    12:00 +5°C° 0.2 mm 7 mps 751 mmHg 88%
    13:00 +5°C° 0.5 mm 7 mps 750 mmHg 89%
    14:00 +5°C° 0.5 mm 7 mps 749 mmHg 90%
    15:00 +5°C° 0.5 mm 7 mps 748 mmHg 90%
    16:00 +5°C° 1 mm 8 mps 747 mmHg 89%
    17:00 +6°C° 1 mm 9 mps 746 mmHg 88%
    18:00 +6°C° 1 mm 10 mps 745 mmHg 88%
    19:00 +5°C° 1.2 mm 10 mps 745 mmHg 81%
    20:00 +5°C° 1.2 mm 9 mps 745 mmHg 74%
    21:00 +4°C° 1.2 mm 8 mps 745 mmHg 67%
    22:00 +3°C° 0.5 mm 9 mps 745 mmHg 69%
    23:00 +3°C° 0.5 mm 9 mps 745 mmHg 72%

    Day after tomorrow, 14 December, Thursday

    Time Temperature Precipitation Wind Pressure Humidity
    00:00 +2°C° 0.5 mm 10 mps 745 mmHg 74%
    01:00 +2°C° 0.3 mm 10 mps 746 mmHg 70%
    02:00 +2°C° 0.3 mm 10 mps 746 mmHg 66%
    03:00 +1°C° 0.3 mm 10 mps 746 mmHg 61%
    04:00 +1°C° 0 mm 10 mps 747 mmHg 63%
    05:00 +1°C° 0 mm 9 mps 747 mmHg 64%
    06:00 +1°C° 0 mm 9 mps 747 mmHg 65%
    07:00 +1°C° 0.1 mm 8 mps 747 mmHg 67%
    08:00 +1°C° 0.1 mm 8 mps 747 mmHg 69%
    09:00 +1°C° 0.1 mm 8 mps 747 mmHg 71%
    10:00 +3°C° 0.2 mm 7 mps 746 mmHg 73%
    11:00 +3°C° 0.2 mm 7 mps 745 mmHg 75%
    12:00 +3°C° 0.2 mm 7 mps 744 mmHg 77%
    13:00 +3°C° 0.9 mm 6 mps 743 mmHg 80%
    14:00 +3°C° 0.9 mm 5 mps 742 mmHg 84%
    15:00 +4°C° 0.9 mm 4 mps 741 mmHg 87%
    16:00 +4°C° 1 mm 4 mps 742 mmHg 86%
    17:00 +2°C° 1 mm 5 mps 742 mmHg 85%
    18:00 +2°C° 1 mm 5 mps 742 mmHg 84%
    19:00 +2°C° 0.4 mm 5 mps 743 mmHg 81%
    20:00 +2°C° 0.4 mm 5 mps 743 mmHg 78%
    21:00 +1°C° 0.4 mm 5 mps 744 mmHg 75%
    22:00 +1°C° 0 mm 5 mps 744 mmHg 77%
    23:00 +1°C° 0 mm 5 mps 744 mmHg 78%

    15 December, Friday

    Time Temperature Precipitation Wind Pressure Humidity
    00:00 0°C° 0 mm 4 mps 744 mmHg 80%
    01:00 0°C° 0 mm 4 mps 744 mmHg 82%
    02:00 0°C° 0 mm 4 mps 744 mmHg 85%
    03:00 0°C° 0 mm 4 mps 744 mmHg 88%
    04:00 0°C° 0.1 mm 4 mps 745 mmHg 89%
    05:00 +1°C° 0.1 mm 3 mps 745 mmHg 91%
    06:00 +1°C° 0.1 mm 3 mps 745 mmHg 92%
    07:00 +1°C° 0.4 mm 3 mps 745 mmHg 92%
    08:00 +3°C° 0.4 mm 2 mps 746 mmHg 92%
    09:00 +3°C° 0.4 mm 2 mps 746 mmHg 92%
    10:00 +4°C° 0.2 mm 2 mps 746 mmHg 90%
    11:00 +3°C° 0.2 mm 3 mps 747 mmHg 88%
    12:00 +4°C° 0.2 mm 3 mps 747 mmHg 86%
    13:00 +4°C° 0 mm 3 mps 748 mmHg 86%
    14:00 +4°C° 0 mm 2 mps 748 mmHg 85%
    15:00 +4°C° 0 mm 2 mps 749 mmHg 85%
    16:00 +4°C° 0 mm 2 mps 750 mmHg 85%
    17:00 +3°C° 0 mm 2 mps 750 mmHg 85%
    18:00 +3°C° 0 mm 2 mps 751 mmHg 85%
    19:00 +3°C° 0 mm 2 mps 752 mmHg 86%
    20:00 +3°C° 0 mm 2 mps 753 mmHg 86%
    21:00 +2°C° 0 mm 3 mps 753 mmHg 86%
    22:00 +1°C° 0 mm 3 mps 754 mmHg 86%
    23:00 +1°C° 0 mm 3 mps 754 mmHg 86%

    16 December, Saturday

    Time Temperature Precipitation Wind Pressure Humidity
    00:00 +1°C° 0 mm 3 mps 755 mmHg 86%
    01:00 +1°C° 0 mm 3 mps 755 mmHg 87%
    02:00 0°C° 0 mm 4 mps 756 mmHg 87%
    03:00 0°C° 0 mm 4 mps 756 mmHg 87%
    04:00 +1°C° 0.2 mm 4 mps 756 mmHg 88%
    05:00 +1°C° 0.2 mm 4 mps 757 mmHg 88%
    06:00 +1°C° 0.2 mm 4 mps 757 mmHg 89%
    07:00 +1°C° 0.1 mm 4 mps 758 mmHg 87%
    08:00 +1°C° 0.1 mm 4 mps 758 mmHg 85%
    09:00 +3°C° 0.1 mm 4 mps 759 mmHg 84%
    10:00 +2°C° 0.2 mm 5 mps 759 mmHg 79%
    11:00 +3°C° 0.2 mm 5 mps 759 mmHg 75%
    12:00 +3°C° 0.2 mm 6 mps 760 mmHg 71%
    13:00 +3°C° 0.3 mm 5 mps 760 mmHg 73%
    14:00 +3°C° 0.3 mm 5 mps 760 mmHg 75%
    15:00 +2°C° 0.3 mm 5 mps 760 mmHg 77%
    16:00 +2°C° 0.3 mm 5 mps 761 mmHg 78%
    17:00 +2°C° 0.3 mm 5 mps 762 mmHg 80%
    18:00 +3°C° 0.3 mm 4 mps 762 mmHg 82%
    19:00 +1°C° 0.2 mm 4 mps 763 mmHg 82%
    20:00 +1°C° 0.2 mm 4 mps 763 mmHg 83%
    21:00 +1°C° 0.2 mm 4 mps 764 mmHg 83%
    22:00 +1°C° 0.2 mm 4 mps 764 mmHg 84%
    23:00 +1°C° 0.2 mm 4 mps 764 mmHg 84%

    17 December, Sunday

    Time Temperature Precipitation Wind Pressure Humidity
    00:00 +1°C° 0.2 mm 4 mps 765 mmHg 85%
    01:00 +1°C° 0.2 mm 4 mps 765 mmHg 85%
    02:00 +1°C° 0.2 mm 4 mps 765 mmHg 86%
    03:00 0°C° 0.2 mm 4 mps 765 mmHg 86%
    04:00 +1°C° 0.2 mm 3 mps 766 mmHg 86%
    05:00 +1°C° 0.2 mm 3 mps 766 mmHg 86%
    06:00 +1°C° 0.2 mm 3 mps 766 mmHg 86%
    07:00 +1°C° 0.1 mm 3 mps 767 mmHg 85%
    08:00 +1°C° 0.1 mm 3 mps 767 mmHg 84%
    09:00 +1°C° 0.1 mm 3 mps 768 mmHg 83%
    10:00 +2°C° 0 mm 3 mps 768 mmHg 80%
    11:00 +3°C° 0 mm 3 mps 768 mmHg 77%
    12:00 +3°C° 0 mm 3 mps 768 mmHg 74%
    13:00 +3°C° 0 mm 3 mps 768 mmHg 76%
    14:00 +3°C° 0 mm 3 mps 768 mmHg 78%
    15:00 +3°C° 0 mm 2 mps 768 mmHg 81%
    16:00 +3°C° 0 mm 2 mps 769 mmHg 83%
    17:00 +2°C° 0 mm 2 mps 769 mmHg 85%
    18:00 +1°C° 0 mm 2 mps 769 mmHg 88%
    19:00 0°C° 0 mm 3 mps 770 mmHg 89%
    20:00 0°C° 0 mm 3 mps 770 mmHg 90%
    21:00 0°C° 0 mm 3 mps 770 mmHg 92%
    22:00 -1°C° 0 mm 3 mps 770 mmHg 92%
    23:00 -1°C° 0 mm 3 mps 770 mmHg 93%
    Show more